Location: Unspecified
(0.0000°N, 0.0000°E)
Time: 17:57:47
(UTC+00:00)

Vanguard 2 Rocket - Pass Details

Date: 21 January 2020
Orbit: 554 x 3327 km, 32.9° (Epoch: 20 February)

Event Time Altitude Azimuth Distance (km) Brightness Sun altitude
Rises 00:19:40 0° 218° (SW) 4,147 - -69.8°
Reaches altitude 10° 00:23:45 10° 203° (SSW) 2,721 - -69.7°
Maximum altitude 00:28:15 21° 156° (SSE) 1,652 - -69.5°
Drops below altitude 10° 00:31:40 10° 105° (ESE) 2,008 - -69.3°
Sets 00:34:08 0° 87° (E) 2,780 - -69.2°
